Miscellaneous Local Product
Issued by NWS Hastings, NE

Home | Current Version | Previous Version | Graphics & Text | Print | Product List | Glossary On
Versions: 1 2 3 4 5 6 7 8 9 10 11 12 13 14 15 16 17 18 19 20 21 22 23 24 25 26 27 28 29 30 31 32 33 34 35 36 37 38 39 40 41 42 43 44 45 46 47 48 49 50
000
AXUS43 KGID 261402
MISGRI

GID CWA HOURLY WEATHER ROUNDUP
NATIONAL WEATHER SERVICE HASTINGS NE
800 AM CST FRI DEC 26 2014

NOTE: "FAIR" INDICATES FEW OR NO CLOUDS BELOW 12,000 FEET WITH NO
SIGNIFICANT WEATHER AND/OR OBSTRUCTIONS TO VISIBILITY.

...SOUTH CENTRAL NEBRASKA...

CITY           SKY/WX    TMP DP  RH WIND       PRES   REMARKS
GRAND ISLAND   CLOUDY    27  23  85 N18       29.98S WCI  14
HASTINGS       CLOUDY    27  23  85 N20       29.96R WCI  13
KEARNEY        CLOUDY    27  19  74 N23G29    29.97R WCI  12
ORD            CLOUDY    25  21  85 N15G23    30.01R WCI  13
YORK           CLOUDY    28  27  93 N23G30    29.95S WCI  14
AURORA         CLOUDY    28  26  91 N21       29.97R WCI  15
LEXINGTON      CLOUDY    27  22  84 N18       29.99R WCI  14
HOLDREGE       CLOUDY    27  22  84 N22G30    29.96R WCI  12
HEBRON         CLOUDY    31  27  84 N10       29.96R WCI  22

...NEBRASKA PANHANDLE...

CITY           SKY/WX    TMP DP  RH WIND       PRES   REMARKS
CHADRON        LGT SNOW  19  16  88 NE5       30.06R FOG     WCI  12
ALLIANCE       FLURRIES  16  14  92 N7        30.00R WCI   6
SCOTTSBLUFF    FLURRIES  18  14  84 W3        30.01S
SIDNEY         LGT SNOW  17  14  88 N10       29.97S FOG     WCI   5

...WESTERN AND NORTH CENTRAL NEBRASKA...

CITY           SKY/WX    TMP DP  RH WIND       PRES   REMARKS
VALENTINE      CLOUDY    22  19  89 N10       30.05R WCI  11
AINSWORTH      CLOUDY    22  20  93 N15       30.03R WCI   9
ONEILL         CLOUDY    26  25  95 N13       30.01R WCI  15
BROKEN BOW     CLOUDY    25  20  81 N23       29.99R WCI  10
IMPERIAL       CLOUDY    23  18  81 N18       30.00R WCI   9
NORTH PLATTE   CLOUDY    24  19  81 N12       30.00R WCI  13
MCCOOK         CLOUDY    26  20  77 N16       30.00R WCI  14

...EASTERN NEBRASKA...

CITY           SKY/WX    TMP DP  RH WIND       PRES   REMARKS
NORFOLK        CLOUDY    28  25  88 N13       30.00R WCI  17
SO SIOUX CITY  CLOUDY    32  27  81 N20       29.98R WCI  20
TEKAMAH        CLOUDY    33  30  88 N23G30    29.97R WCI  21
COLUMBUS       CLOUDY    28  21  74 N15       29.99R WCI  17
ALBION         CLOUDY    28  23  82 N13G21    30.01R WCI  17
OMAHA EPPLEY   CLOUDY    34  32  92 N14       29.96R FOG     WCI  25
OFFUTT AFB     CLOUDY    34  31  88 N10       29.93S WCI  26
MILLARD        CLOUDY    34  32  92 N6        29.95R FOG     WCI  29
LINCOLN        CLOUDY    32  28  85 N17       29.98R WCI  21
NEBRASKA CITY  CLOUDY    33  33 100 N12       29.93R FOG     WCI  24
BEATRICE       CLOUDY    32  29  90 N15G24    29.95R WCI  22
FALLS CITY     CLOUDY    33  31  92 N12       29.92R FOG     WCI  24

...NORTHERN KANSAS...

CITY           SKY/WX    TMP DP  RH WIND       PRES   REMARKS
GOODLAND       CLOUDY    24  22  91 N13       29.95R FOG     WCI  12
HILL CITY      CLOUDY    28  22  78 N20       29.96R WCI  15
NORTON         CLOUDY    28  19  69 N15G21    29.96S WCI  17
PHILLIPSBURG   CLOUDY    30  27  86 N15       29.98R WCI  19
BELOIT         CLOUDY    32  28  86 N17       29.94R WCI  21
HAYS           CLOUDY    30  19  64 N12G22    29.95R WCI  21
RUSSELL        CLOUDY    30  27  88 N13G25    29.94R WCI  20
CONCORDIA      CLOUDY    32  29  88 NE17G26   29.94R WCI  21
SALINA         CLOUDY    35  30  82 N14       29.94R WCI  26
TOPEKA         CLOUDY    37  33  85 CALM      29.91R



USA.gov is the U.S. government's official web portal to all federal, state and local government web resources and services.